Location: Cannifist
(18.2333°N, 63.0167°W)
Time: 17:40:42
(UTC+00:00)

FALCON 9 DEB - Pass Details

Date: 27 February 2020
Orbit: 430 x 442 km, 53.0° (Epoch: 05 April)

Event Time Altitude Azimuth Distance (km) Brightness Sun altitude
Rises 23:50:08 0° 320° (NW) 2,398 7.4 -22.8°
Reaches altitude 10° 23:52:14 10° 317° (NW) 1,532 6.4 -23.3°
Enters shadow 23:54:42 42° 302° (WNW) 625 4.2 -23.8°
